KQA511 HUEN-HKJK

Flight info

Callsign KQA511
Flight time N/A
Altitude 33000
Route PASAN1B PASAN UL433 NAKAT NAKAT4A
Aircraft B77W/H-SDE1E2E3FGHIJ2J3J4J5M1RWXY/LB1D1

Departure

Time N/A
Airport Entebbe International Airport (HUEN)

Arrival

Time 2026-05-03 20:49
Airport Jomo Kenyatta International Airport (HKJK)
Time Latitude Longitude Altitude Speed Heading
2026-05-03 20:15 -0.33583 33.67431 33070 ft 455 kts 107°
2026-05-03 20:15 -0.35569 33.73407 33125 ft 452 kts 107°
2026-05-03 20:16 -0.37550 33.79373 33125 ft 452 kts 107°
2026-05-03 20:16 -0.39530 33.85338 33139 ft 452 kts 107°
2026-05-03 20:17 -0.41496 33.91263 33139 ft 452 kts 107°
2026-05-03 20:17 -0.43472 33.97228 33139 ft 452 kts 107°
2026-05-03 20:18 -0.45206 34.03265 33140 ft 452 kts 103°
2026-05-03 20:18 -0.46810 34.09328 33140 ft 451 kts 104°
2026-05-03 20:19 -0.48455 34.15375 33140 ft 451 kts 104°
2026-05-03 20:19 -0.50102 34.21372 33139 ft 450 kts 104°
2026-05-03 20:20 -0.51763 34.27404 33142 ft 450 kts 104°
2026-05-03 20:20 -0.53426 34.33438 33142 ft 450 kts 104°
2026-05-03 20:21 -0.55087 34.39470 33142 ft 450 kts 104°
2026-05-03 20:21 -0.56748 34.45499 33143 ft 450 kts 104°
2026-05-03 20:22 -0.58396 34.51486 33143 ft 450 kts 104°
2026-05-03 20:22 -0.60058 34.57517 33144 ft 450 kts 104°
2026-05-03 20:23 -0.61752 34.63529 33145 ft 450 kts 105°
2026-05-03 20:23 -0.63581 34.69508 33145 ft 450 kts 105°
2026-05-03 20:24 -0.65383 34.75493 33146 ft 450 kts 105°
2026-05-03 20:24 -0.67156 34.81434 33181 ft 449 kts 105°
2026-05-03 20:25 -0.68937 34.87415 33186 ft 449 kts 105°
2026-05-03 20:25 -0.70717 34.93394 33191 ft 449 kts 105°
2026-05-03 20:26 -0.72496 34.99371 33195 ft 449 kts 105°
2026-05-03 20:26 -0.74263 35.05310 33200 ft 449 kts 105°
2026-05-03 20:27 -0.76044 35.11292 33205 ft 449 kts 105°
2026-05-03 20:27 -0.77821 35.17265 33210 ft 449 kts 105°
2026-05-03 20:28 -0.79585 35.23199 33216 ft 448 kts 105°
2026-05-03 20:28 -0.81360 35.29166 33212 ft 445 kts 105°
2026-05-03 20:28 -0.82226 35.32079 33165 ft 432 kts 105°
2026-05-03 20:29 -0.83076 35.34928 32882 ft 425 kts 106°
2026-05-03 20:29 -0.84049 35.37696 32582 ft 420 kts 111°
2026-05-03 20:29 -0.85232 35.40358 32174 ft 418 kts 114°
2026-05-03 20:29 -0.86534 35.42947 31768 ft 416 kts 116°
2026-05-03 20:30 -0.87894 35.45485 31365 ft 413 kts 117°
2026-05-03 20:30 -0.89240 35.47967 30970 ft 411 kts 117°
2026-05-03 20:30 -0.90578 35.50477 30574 ft 408 kts 116°
2026-05-03 20:30 -0.91889 35.52979 30180 ft 405 kts 116°
2026-05-03 20:31 -0.93185 35.55478 29770 ft 403 kts 116°
2026-05-03 20:31 -0.94464 35.57960 29351 ft 401 kts 116°
2026-05-03 20:31 -0.95735 35.60433 28925 ft 400 kts 116°
2026-05-03 20:31 -0.97002 35.62903 28510 ft 398 kts 116°
2026-05-03 20:32 -0.98259 35.65358 28103 ft 395 kts 116°
2026-05-03 20:32 -0.99505 35.67790 27703 ft 393 kts 116°
2026-05-03 20:32 -1.00746 35.70215 27304 ft 391 kts 116°
2026-05-03 20:32 -1.01964 35.72595 26910 ft 388 kts 116°
2026-05-03 20:33 -1.03189 35.74990 26516 ft 386 kts 116°
2026-05-03 20:33 -1.04404 35.77366 26122 ft 384 kts 116°
2026-05-03 20:33 -1.05619 35.79740 25728 ft 382 kts 116°
2026-05-03 20:33 -1.06821 35.82092 25330 ft 380 kts 116°
2026-05-03 20:34 -1.08019 35.84434 24937 ft 378 kts 116°
2026-05-03 20:34 -1.09213 35.86769 24545 ft 376 kts 116°
2026-05-03 20:34 -1.10398 35.89087 24155 ft 374 kts 116°
2026-05-03 20:34 -1.11577 35.91393 23768 ft 372 kts 116°
2026-05-03 20:35 -1.12733 35.93654 23384 ft 370 kts 116°
2026-05-03 20:35 -1.13900 35.95935 22999 ft 368 kts 116°
2026-05-03 20:35 -1.15060 35.98204 22612 ft 366 kts 116°
2026-05-03 20:35 -1.16214 36.00461 22229 ft 364 kts 116°
2026-05-03 20:36 -1.17359 36.02701 21844 ft 362 kts 116°
2026-05-03 20:36 -1.18503 36.04938 21460 ft 360 kts 116°
2026-05-03 20:36 -1.19640 36.07163 21067 ft 359 kts 117°
2026-05-03 20:36 -1.20757 36.09348 20684 ft 357 kts 117°
2026-05-03 20:37 -1.21883 36.11550 20298 ft 355 kts 117°
2026-05-03 20:37 -1.23006 36.13747 19912 ft 354 kts 117°
2026-05-03 20:37 -1.24123 36.15933 19524 ft 352 kts 117°
2026-05-03 20:37 -1.25233 36.18103 19135 ft 351 kts 117°
2026-05-03 20:38 -1.26342 36.20273 18745 ft 349 kts 117°
2026-05-03 20:38 -1.27443 36.22429 18365 ft 348 kts 117°
2026-05-03 20:38 -1.28540 36.24575 17984 ft 346 kts 117°
2026-05-03 20:38 -1.29631 36.26711 17604 ft 344 kts 117°
2026-05-03 20:39 -1.30718 36.28839 17224 ft 343 kts 117°
2026-05-03 20:39 -1.31783 36.30923 16847 ft 341 kts 117°
2026-05-03 20:39 -1.32861 36.33032 16465 ft 340 kts 117°
2026-05-03 20:39 -1.33934 36.35130 16092 ft 338 kts 117°
2026-05-03 20:40 -1.34999 36.37217 15753 ft 335 kts 117°
2026-05-03 20:40 -1.36005 36.39284 15563 ft 325 kts 115°
2026-05-03 20:40 -1.36927 36.41310 15226 ft 316 kts 114°
2026-05-03 20:40 -1.37810 36.43308 14738 ft 313 kts 114°
2026-05-03 20:41 -1.38691 36.45292 14245 ft 311 kts 114°
2026-05-03 20:41 -1.39574 36.47265 13722 ft 310 kts 114°
2026-05-03 20:41 -1.40438 36.49185 13261 ft 303 kts 114°
2026-05-03 20:41 -1.41284 36.51062 12916 ft 290 kts 114°
2026-05-03 20:42 -1.42100 36.52868 12592 ft 283 kts 114°
2026-05-03 20:42 -1.42928 36.54698 12274 ft 294 kts 114°
2026-05-03 20:42 -1.43779 36.56580 11936 ft 301 kts 114°
2026-05-03 20:42 -1.44650 36.58505 11595 ft 306 kts 114°
2026-05-03 20:43 -1.45528 36.60445 11248 ft 305 kts 114°
2026-05-03 20:43 -1.46401 36.62374 10906 ft 304 kts 114°
2026-05-03 20:43 -1.47255 36.64263 10574 ft 302 kts 114°
2026-05-03 20:43 -1.47959 36.66218 10338 ft 296 kts 105°
2026-05-03 20:44 -1.48150 36.68234 10173 ft 289 kts 87°
2026-05-03 20:44 -1.47707 36.70168 9977 ft 286 kts 71°
2026-05-03 20:44 -1.46818 36.71955 9612 ft 287 kts 63°
2026-05-03 20:44 -1.45801 36.73661 9518 ft 282 kts 59°
2026-05-03 20:45 -1.44691 36.75282 9305 ft 288 kts 56°
2026-05-03 20:45 -1.43491 36.76906 8857 ft 288 kts 55°
2026-05-03 20:45 -1.42336 36.78479 8482 ft 275 kts 56°
2026-05-03 20:45 -1.41243 36.79978 8118 ft 265 kts 56°
2026-05-03 20:46 -1.40183 36.81431 7773 ft 254 kts 56°
2026-05-03 20:46 -1.39169 36.82829 7454 ft 244 kts 55°
2026-05-03 20:46 -1.38193 36.84170 7132 ft 232 kts 55°
2026-05-03 20:46 -1.37283 36.85421 6823 ft 215 kts 54°
2026-05-03 20:47 -1.36437 36.86583 6546 ft 198 kts 54°
2026-05-03 20:47 -1.35666 36.87643 6317 ft 180 kts 54°
2026-05-03 20:47 -1.34968 36.88602 6079 ft 161 kts 54°
2026-05-03 20:47 -1.34348 36.89453 5885 ft 148 kts 54°
2026-05-03 20:48 -1.33744 36.90281 5691 ft 144 kts 54°
2026-05-03 20:48 -1.33164 36.91087 5504 ft 146 kts 54°
2026-05-03 20:48 -1.32562 36.91914 5345 ft 144 kts 53°
2026-05-03 20:48 -1.32060 36.92596 5342 ft 89 kts 54°
2026-05-03 20:49 -1.31832 36.92909 5342 ft 39 kts 54°
2026-05-03 20:49 -1.31665 36.93138 5342 ft 41 kts 54°
2026-05-03 20:49 -1.31577 36.93326 5342 ft 24 kts 118°
2026-05-03 20:49 -1.31707 36.93432 5342 ft 27 kts 143°
2026-05-03 20:50 -1.31809 36.93480 5342 ft 13 kts 207°
2026-05-03 20:50 -1.31895 36.93392 5342 ft 22 kts 227°
2026-05-03 20:50 -1.31996 36.93254 5342 ft 28 kts 237°
2026-05-03 20:50 -1.32113 36.93081 5342 ft 32 kts 234°
2026-05-03 20:51 -1.32254 36.92891 5342 ft 35 kts 233°
2026-05-03 20:51 -1.32404 36.92688 5342 ft 38 kts 233°
2026-05-03 20:51 -1.32546 36.92491 5342 ft 31 kts 234°
2026-05-03 20:51 -1.32648 36.92360 5342 ft 13 kts 206°
2026-05-03 20:52 -1.32750 36.92389 5342 ft 18 kts 180°
2026-05-03 20:52 -1.32852 36.92301 5342 ft 23 kts 223°
2026-05-03 20:52 -1.33013 36.92220 5342 ft 27 kts 187°
2026-05-03 20:52 -1.33169 36.92240 5342 ft 6 kts 161°
2026-05-03 20:53 -1.33189 36.92253 5342 ft 3 kts 139°
2026-05-03 20:53 -1.33195 36.92282 5342 ft 5 kts 75°
2026-05-03 20:53 -1.33181 36.92312 5342 ft 4 kts 65°
2026-05-03 20:53 -1.33178 36.92317 5342 ft 1 kts 63°
2026-05-03 20:54 -1.33175 36.92322 5342 ft 1 kts 58°
2026-05-03 20:54 -1.33167 36.92335 5342 ft 0 kts 57°